Total_Precipitation_Accumulation
0.01 0.00 0.01 0.01 0.01 0.01 0.02 0.01 0.00 0.00 0.01 0.01 0.02 0.02 0.04 0.04 0.02 0.00 0.00 0.00 0.01 0.01 0.00 0.00 0.00 0.00 0.03 0.10 0.35 0.60 0.49 0.13 0.01 0.00 0.01 0.06 0.03 0.00 0.00 0.00 0.00 0.00 0.00 0.00 0.00
0.01 0.00 0.01 0.01 0.01 0.02 0.01 0.01 0.00 0.00 0.01 0.02 0.03 0.03 0.04 0.03 0.01 0.00 0.02 0.08 0.04 0.00 0.00 0.01 0.00 0.00 0.03 0.05 0.28 0.61 0.36 0.09 0.01 0.02 0.03 0.07 0.04 0.01 0.01 0.00 0.00 0.00 0.00 0.00 0.00
0.00 0.00 0.01 0.01 0.02 0.01 0.00 0.00 0.00 0.01 0.01 0.02 0.03 0.02 0.02 0.02 0.01 0.02 0.05 0.03 0.03 0.01 0.00 0.00 0.01 0.01 0.02 0.03 0.12 0.27 0.24 0.06 0.01 0.05 0.14 0.12 0.09 0.05 0.01 0.00 0.00 0.01 0.01 0.01 0.00
0.00 0.01 0.01 0.01 0.02 0.01 0.00 0.00 0.00 0.01 0.02 0.03 0.02 0.01 0.01 0.03 0.00 0.01 0.07 0.05 0.03 0.00 0.00 0.00 0.00 0.01 0.01 0.02 0.01 0.07 0.03 0.10 0.06 0.03 0.10 0.23 0.17 0.09 0.02 0.00 0.00 0.01 0.04 0.02 0.01
0.00 0.01 0.01 0.01 0.01 0.01 0.01 0.00 0.00 0.01 0.02 0.01 0.01 0.01 0.04 0.03 0.00 0.00 0.00 0.00 0.00 0.00 0.00 0.01 0.01 0.01 0.01 0.00 0.01 0.03 0.01 0.06 0.13 0.11 0.10 0.18 0.21 0.14 0.04 0.00 0.00 0.01 0.02 0.02 0.01
0.01 0.01 0.01 0.01 0.01 0.01 0.01 0.00 0.00 0.00 0.00 0.00 0.00 0.01 0.05 0.03 0.00 0.00 0.00 0.00 0.00 0.00 0.00 0.00 0.02 0.01 0.01 0.00 0.01 0.00 0.01 0.03 0.11 0.26 0.26 0.22 0.20 0.18 0.07 0.01 0.00 0.01 0.03 0.03 0.04
0.01 0.01 0.01 0.01 0.01 0.01 0.01 0.00 0.00 0.00 0.00 0.00 0.00 0.02 0.03 0.01 0.00 0.00 0.00 0.00 0.00 0.00 0.00 0.00 0.00 0.01 0.02 0.01 0.00 0.00 0.03 0.06 0.07 0.19 0.33 0.39 0.30 0.30 0.08 0.12 0.06 0.01 0.02 0.06 0.06
0.01 0.01 0.00 0.01 0.01 0.01 0.00 0.00 0.00 0.00 0.00 0.00 0.00 0.00 0.00 0.00 0.00 0.00 0.00 0.00 0.00 0.00 0.00 0.00 0.01 0.01 0.01 0.03 0.02 0.01 0.07 0.08 0.01 0.11 0.37 0.59 0.43 0.08 0.11 0.22 0.09 0.01 0.06 0.07 0.03
0.00 0.00 0.00 0.01 0.01 0.01 0.00 0.00 0.00 0.00 0.00 0.00 0.00 0.00 0.00 0.00 0.00 0.00 0.00 0.00 0.00 0.00 0.01 0.01 0.04 0.09 0.06 0.07 0.07 0.10 0.03 0.00 0.00 0.01 0.20 0.54 0.36 0.07 0.07 0.29 0.13 0.03 0.05 0.12 0.04
0.00 0.00 0.00 0.00 0.00 0.00 0.00 0.00 0.00 0.00 0.00 0.00 0.00 0.00 0.00 0.00 0.00 0.00 0.00 0.00 0.00 0.04 0.07 0.03 0.12 0.18 0.18 0.19 0.08 0.05 0.02 0.00 0.00 0.01 0.10 0.11 0.16 0.09 0.10 0.19 0.33 0.07 0.04 0.13 0.15
0.00 0.00 0.00 0.00 0.00 0.00 0.00 0.00 0.00 0.00 0.00 0.00 0.00 0.00 0.00 0.00 0.00 0.00 0.00 0.00 0.01 0.05 0.06 0.09 0.22 0.18 0.09 0.09 0.02 0.02 0.03 0.02 0.00 0.01 0.09 0.04 0.02 0.10 0.11 0.14 0.33 0.26 0.10 0.15 0.23
0.00 0.00 0.00 0.00 0.00 0.00 0.00 0.00 0.01 0.01 0.01 0.00 0.00 0.00 0.00 0.00 0.00 0.00 0.00 0.01 0.03 0.03 0.02 0.08 0.12 0.01 0.03 0.13 0.15 0.05 0.04 0.03 0.02 0.00 0.05 0.09 0.06 0.04 0.18 0.14 0.25 0.48 0.34 0.25 0.24
0.00 0.01 0.00 0.00 0.00 0.00 0.00 0.00 0.00 0.01 0.01 0.00 0.00 0.00 0.00 0.00 0.00 0.00 0.00 0.00 0.02 0.02 0.03 0.02 0.00 0.00 0.02 0.16 0.33 0.16 0.03 0.01 0.03 0.04 0.05 0.07 0.13 0.19 0.10 0.11 0.15 0.42 0.42 0.68 0.38
0.00 0.00 0.00 0.00 0.00 0.00 0.00 0.00 0.00 0.01 0.00 0.00 0.00 0.00 0.00 0.00 0.00 0.00 0.00 0.01 0.02 0.02 0.04 0.02 0.00 0.00 0.01 0.04 0.22 0.30 0.02 0.02 0.06 0.24 0.16 0.07 0.07 0.03 0.09 0.11 0.10 0.20 0.30 0.86 0.41
0.00 0.00 0.00 0.00 0.00 0.00 0.00 0.00 0.00 0.00 0.00 0.00 0.00 0.00 0.00 0.00 0.00 0.01 0.00 0.02 0.03 0.02 0.02 0.03 0.01 0.00 0.00 0.01 0.09 0.19 0.09 0.02 0.06 0.45 0.37 0.16 0.20 0.00 0.01 0.03 0.07 0.03 0.07 0.41 0.66
0.00 0.00 0.00 0.00 0.00 0.00 0.00 0.00 0.00 0.00 0.00 0.00 0.00 0.00 0.00 0.00 0.00 0.00 0.02 0.04 0.03 0.03 0.02 0.01 0.01 0.01 0.00 0.00 0.02 0.11 0.26 0.13 0.10 0.34 0.83 0.21 0.17 0.05 0.00 0.00 0.00 0.00 0.00 0.07 0.50
0.00 0.00 0.00 0.00 0.00 0.00 0.00 0.00 0.00 0.00 0.00 0.00 0.00 0.00 0.00 0.00 0.00 0.00 0.02 0.16 0.09 0.10 0.06 0.02 0.01 0.00 0.03 0.01 0.02 0.11 0.35 0.45 0.35 0.41 0.41 0.10 0.22 0.07 0.00 0.00 0.00 0.00 0.00 0.00 0.18
0.00 0.00 0.00 0.00 0.00 0.00 0.00 0.00 0.00 0.00 0.00 0.00 0.00 0.00 0.00 0.00 0.00 0.00 0.01 0.12 0.11 0.16 0.11 0.04 0.03 0.01 0.03 0.02 0.03 0.05 0.14 0.33 0.25 0.07 0.03 0.08 0.30 0.00 0.00 0.00 0.00 0.00 0.00 0.00 0.04
0.00 0.00 0.00 0.00 0.00 0.00 0.00 0.00 0.00 0.00 0.00 0.00 0.00 0.00 0.00 0.00 0.00 0.00 0.02 0.14 0.21 0.31 0.28 0.07 0.06 0.03 0.00 0.01 0.02 0.08 0.10 0.07 0.32 0.09 0.04 0.02 0.01 0.00 0.00 0.00 0.00 0.00 0.00 0.00 0.01
0.00 0.00 0.00 0.00 0.00 0.00 0.00 0.00 0.00 0.00 0.00 0.01 0.02 0.01 0.01 0.00 0.00 0.01 0.05 0.13 0.28 0.27 0.38 0.28 0.23 0.06 0.09 0.05 0.06 0.09 0.04 0.08 0.19 0.40 0.13 0.01 0.00 0.00 0.00 0.00 0.00 0.00 0.00 0.00 0.00
0.00 0.00 0.00 0.00 0.00 0.00 0.00 0.00 0.00 0.00 0.00 0.01 0.01 0.03 0.02 0.01 0.00 0.01 0.02 0.05 0.10 0.09 0.18 0.30 0.23 0.18 0.13 0.02 0.03 0.09 0.22 0.03 0.03 0.18 0.21 0.06 0.02 0.00 0.00 0.00 0.00 0.00 0.00 0.00 0.00
0.00 0.00 0.00 0.00 0.00 0.00 0.00 0.00 0.00 0.00 0.00 0.00 0.01 0.03 0.04 0.00 0.00 0.01 0.01 0.01 0.00 0.05 0.17 0.27 0.26 0.21 0.12 0.04 0.01 0.02 0.05 0.03 0.04 0.10 0.13 0.12 0.04 0.00 0.00 0.00 0.00 0.00 0.00 0.00 0.01
0.00 0.00 0.00 0.00 0.00 0.00 0.00 0.00 0.00 0.00 0.00 0.00 0.00 0.02 0.01 0.00 0.00 0.00 0.00 0.00 0.00 0.00 0.26 0.47 0.39 0.29 0.41 0.27 0.07 0.06 0.05 0.07 0.03 0.06 0.14 0.17 0.02 0.00 0.00 0.00 0.00 0.00 0.00 0.02 0.02
0.00 0.00 0.00 0.00 0.00 0.00 0.00 0.00 0.00 0.00 0.00 0.00 0.00 0.00 0.00 0.00 0.00 0.00 0.00 0.00 0.00 0.01 0.12 0.30 0.35 0.23 0.26 0.23 0.13 0.07 0.04 0.09 0.09 0.09 0.12 0.09 0.00 0.00 0.00 0.00 0.00 0.00 0.00 0.04 0.06
0.00 0.00 0.00 0.00 0.00 0.00 0.00 0.00 0.00 0.00 0.00 0.00 0.00 0.00 0.00 0.00 0.00 0.00 0.00 0.00 0.00 0.00 0.01 0.07 0.17 0.12 0.03 0.01 0.02 0.02 0.02 0.06 0.11 0.05 0.05 0.04 0.01 0.00 0.00 0.00 0.00 0.00 0.00 0.01 0.05
0.00 0.00 0.00 0.00 0.00 0.00 0.00 0.00 0.00 0.00 0.00 0.00 0.00 0.00 0.00 0.00 0.00 0.00 0.01 0.01 0.01 0.00 0.00 0.02 0.09 0.11 0.17 0.02 0.05 0.05 0.13 0.12 0.14 0.06 0.01 0.01 0.01 0.00 0.00 0.00 0.00 0.00 0.00 0.00 0.01
0.00 0.00 0.00 0.00 0.00 0.00 0.00 0.00 0.00 0.00 0.00 0.00 0.00 0.00 0.00 0.00 0.00 0.00 0.00 0.00 0.01 0.04 0.06 0.02 0.11 0.15 0.31 0.16 0.26 0.43 0.46 0.21 0.14 0.11 0.01 0.01 0.01 0.00 0.00 0.00 0.00 0.00 0.00 0.00 0.00